Weather History for Mayport NS, FL

Change the Weather History Date:

Sunday, November 3, 2013

  Actual Average Record
Temperature  
Mean Temperature 61 °F -  
Max Temperature 70 °F 73 °F 84 °F (2003)
Min Temperature 53 °F 60 °F 43 °F (1996)
Degree Days  
Heating Degree Days 4    
Growing Degree Days 11 (Base 50)    
Moisture  
Dew Point 49 °F    
Average Humidity 61    
Maximum Humidity 86    
Minimum Humidity 38    
Precipitation  
Precipitation 0.00 in - - ()
Sea Level Pressure  
Sea Level Pressure 30.10 in    
Wind  
Wind Speed 10 mph (NNE)    
Max Wind Speed 21 mph    
Max Gust Speed 29 mph    
Visibility 10 miles    
Events      
Averages and records for this station are not official NWS values.
T = Trace of Precipitation, MM = Missing Value Source: NWS Daily Summary

Daily Weather History Graph

Daily Weather History Graph

Search for Another Location

Airport:

Trip Planner

Search our weather history database for the weather conditions in past years. The results will help you decide how hot, cold, wet, or windy it might be!

Date:

Astronomy

Nov. 03, 2013 Rise Set
Actual Time 6:41 AM EST 5:36 PM EST
Civil Twilight 6:16 AM EST 6:01 PM EST
Nautical Twilight 5:48 AM EST 6:29 PM EST
Astronomical Twilight 5:20 AM EST 6:57 PM EST
Moon 6:43 AM EST (11/3) 5:52 PM EST (11/3)
Length of Visible Light 11h 44m
Length of Day
10h 54m
New Moon, 0% of the Moon is Illuminated
Nov 3
New Moon
Nov 10
First Quarter
Nov 17
Full
Nov 25
Last Quarter
Dec 2
New

Hourly Weather History & Observations

Time (EST) Temp. Dew Point Humidity Pressure Visibility Wind Dir Wind Speed Gust Speed Precip Events Conditions
12:52 AM 62.1 °F 55.9 °F 80% 29.98 in 10.0 mi WNW 4.6 mph - N/A   Clear
1:52 AM 60.1 °F 51.1 °F 72% 29.98 in 10.0 mi Variable 3.5 mph - N/A   Clear
1:52 AM 57.9 °F 51.1 °F 78% 29.99 in 10.0 mi Variable 5.8 mph - N/A   Clear
2:52 AM 57.0 °F 50.0 °F 77% 30.00 in 10.0 mi Variable 4.6 mph - N/A   Clear
3:52 AM 55.9 °F 50.0 °F 80% 30.01 in 10.0 mi Variable 4.6 mph - N/A   Clear
4:52 AM 55.0 °F 48.9 °F 80% 30.03 in 10.0 mi NW 4.6 mph - N/A   Clear
5:52 AM 54.0 °F 48.9 °F 83% 30.04 in 10.0 mi Variable 4.6 mph - N/A   Clear
6:52 AM 53.1 °F 48.9 °F 86% 30.07 in 10.0 mi Variable 4.6 mph - N/A   Clear
7:52 AM 57.9 °F 50.0 °F 75% 30.09 in 10.0 mi North 10.4 mph - N/A   Clear
8:52 AM 62.1 °F 52.0 °F 70% 30.12 in 10.0 mi North 10.4 mph - N/A   Clear
9:52 AM 64.9 °F 55.0 °F 70% 30.14 in 10.0 mi North 10.4 mph - N/A   Clear
10:52 AM 68.0 °F 50.0 °F 52% 30.14 in 10.0 mi NNE 15.0 mph 25.3 mph N/A   Scattered Clouds
10:59 AM 68.0 °F 50.0 °F 52% 30.14 in 10.0 mi North 15.0 mph 23.0 mph N/A   Scattered Clouds
11:52 AM 69.1 °F 46.9 °F 45% 30.14 in 10.0 mi NNE 15.0 mph 23.0 mph N/A   Scattered Clouds
12:52 PM 68.0 °F 46.9 °F 47% 30.12 in 10.0 mi NNE 18.4 mph 24.2 mph N/A   Partly Cloudy
1:52 PM 69.1 °F 42.1 °F 38% 30.12 in 10.0 mi NNE 17.3 mph 24.2 mph N/A   Partly Cloudy
2:52 PM 69.1 °F 45.0 °F 42% 30.12 in 10.0 mi NNE 17.3 mph 24.2 mph N/A   Partly Cloudy
3:52 PM 68.0 °F 45.0 °F 43% 30.12 in 10.0 mi NNE 19.6 mph - N/A   Partly Cloudy
4:52 PM 66.0 °F 45.0 °F 47% 30.14 in 10.0 mi NNE 15.0 mph 24.2 mph N/A   Partly Cloudy
5:52 PM 64.9 °F 46.0 °F 50% 30.16 in 10.0 mi NNE 16.1 mph 24.2 mph N/A   Partly Cloudy
6:52 PM 64.9 °F 46.9 °F 52% 30.17 in 10.0 mi NE 19.6 mph 24.2 mph N/A   Scattered Clouds
7:52 PM 64.9 °F 48.0 °F 54% 30.19 in 10.0 mi NE 20.7 mph 25.3 mph N/A   Scattered Clouds
8:52 PM 64.9 °F 48.0 °F 54% 30.19 in 10.0 mi NE 19.6 mph 27.6 mph N/A   Partly Cloudy
9:52 PM 64.9 °F 46.0 °F 50% 30.21 in 10.0 mi NE 19.6 mph - N/A   Clear
10:52 PM 64.9 °F 48.0 °F 54% 30.21 in 10.0 mi NE 20.7 mph 28.8 mph N/A   Clear